Regional Weather Roundup
Issued by NWS Mt. Holly, NJ

Home | Current Version | Previous Version | Text Only | Print | Product List | Glossary On
Versions: 1 2 3 4 5 6 7 8 9 10 11 12 13 14 15 16 17 18 19 20 21 22 23 24 25 26 27 28 29 30 31 32 33 34 35 36 37 38 39 40 41 42 43 44 45 46 47 48 49 50
000
ASUS41 KPHI 030312
RWRPHI

REGIONAL WEATHER ROUNDUP
NATIONAL WEATHER SERVICE MOUNT HOLLY NJ
1100 PM EDT MON MAY 02 2016

NOTE:  "FAIR" INDICATES FEW OR NO CLOUDS BELOW 12,000 FEET WITH NO
SIGNIFICANT WEATHER AND/OR OBSTRUCTIONS TO VISIBILITY.

 * = STATION DOES NOT REPORT PRECIPITATION (E.G. RAIN, SNOW, ETC.)
        OR FOG.

NJZ015>026-030400-
SOUTHERN NEW JERSEY

CITY           SKY/WX    TMP DP  RH WIND       PRES   REMARKS
POMONA         LGT RAIN  54  52  93 E7        29.92S
WILDWOOD*      CLOUDY   N/A N/A N/A E12G17    29.88F
MILLVILLE      LGT RAIN  56  54  93 E8        29.90F
MOUNT HOLLY    LGT RAIN  57  55  93 N5        29.92R
TRENTON        LGT RAIN  57  54  89 N6        29.92S FOG

$$
NJZ001>014-030400-
NORTHERN NEW JERSEY

CITY           SKY/WX    TMP DP  RH WIND       PRES   REMARKS
SUSSEX         CLOUDY    52  49  89 SW3       29.95R
ANDOVER*         N/A     54  51  90 CALM      29.94R
MORRISTOWN     CLOUDY    50  48  93 CALM      29.95R FOG
NEWARK         CLOUDY    55  52  89 NE6       29.93R
TETERBORO      CLOUDY    54  49  83 CALM      29.93R
CALDWELL       PTCLDY    53  50  89 CALM      29.95R
SOMERVILLE     CLOUDY    52  51  97 CALM      29.93R FOG
ALLAIRE*       CLOUDY    52  51  97 CALM      29.96R
TOMS RIVER*    CLOUDY    54  52  94 NE5       29.94R

$$
PAZ043-044-047-054-055-060>062-066>071-030400-
EASTERN PENNSYLVANIA

CITY           SKY/WX    TMP DP  RH WIND       PRES   REMARKS
PHILADELPHIA   TSTM      60  56  86 N3        29.92R FOG
NORTH PHILA    RAIN      59  56  89 E3        29.94R FOG
BLUE BELL*     CLOUDY    55  54  94 CALM      29.91S
DOYLESTOWN     TSTM      54  54 100 SE9       29.93R FOG
QUAKERTOWN*    CLOUDY    55  55 100 CALM      29.94R
PERKASIE*      LGT RAIN  55  55 100 CALM      29.94S
POTTSTOWN      RAIN      57  56  96 CALM      29.93S FOG
LANCASTER      HVY RAIN  58  58 100 SE8       29.92S VSB 1
COATESVILLE    RAIN      57  57 100 E8        29.94R
READING        TSTM      59  56  89 W5        29.93R FOG
ALLENTOWN      CLOUDY    57  53  86 CALM      29.93R
MOUNT POCONO   CLOUDY    49  44  83 N5        29.94S
HAZLETON       LGT RAIN  50  45  81 E5        29.97R
LEHIGHTON      CLOUDY    54  52  94 CALM      29.93S
WILKES BARRE   CLOUDY    52  45  77 NE6       29.95S

$$
DEZALL-MDZ008-012-015-019-020-030400-
DELAWARE AND EASTERN MARYLAND

CITY           SKY/WX    TMP DP  RH WIND       PRES   REMARKS
WILMINGTON     RAIN      60  56  86 NE6       29.92R FOG
DOVER          TSTM      57  57 100 E10G20    29.89S FOG
GEORGETOWN     TSTM      60  59  96 N14G20    29.88R FOG
EASTON         HVY RAIN N/A N/A N/A CALM      29.92R
PATUXENT       TSTM      67  63  87 SW8G24    29.92R FOG
OCEAN CITY     LGT RAIN  62  60  93 SW18G28   29.90R
WALLOPS ISLAND RAIN      66  61  84 SW12      29.91R
CAMBRIDGE      CLOUDY    68  63  83 S14G25    29.89R
SALISBURY      LGT RAIN  68  64  87 SW16G24   29.88R

$$
PAZ001-021-NYZ056-072-MDZ011-DCZ001-030400-
OTHER NEARBY LOCATIONS

CITY           SKY/WX    TMP DP  RH WIND       PRES   REMARKS
HARRISBURG     RAIN      60  58  92 CALM      29.90F FOG
STATE COLLEGE  LGT RAIN  56  53  91 N9        29.90R
WILLIAMSPORT   CLOUDY    55  48  77 SE3       29.94R
BINGHAMTON     CLOUDY    44  40  85 NE6       29.95F
NEW YORK CITY  CLOUDY    57  51  80 N3        29.96S
BALTIMORE      CLOUDY    64  62  93 NE3       29.86R
WASHINGTON DC  LGT RAIN  62  58  86 SE3       29.87F

$$



USA.gov is the U.S. government's official web portal to all federal, state and local government web resources and services.